• In Uzbekistan
  • List of Countries
  • For 7 days
  • Water Temperature
  • Satellite Maps
  • Weather Map
  • Weather Widgets
  • user-avatar
    Login

    Hourly Weather Naru

    Today, 24 February, Saturday

    Time Temperature Precipitation Wind Pressure Humidity
    00:00 +20°C° 0 mm 1 mps 745 mmHg 82%
    01:00 +18°C° 0 mm 0 mps 745 mmHg 85%
    02:00 +20°C° 0 mm 1 mps 745 mmHg 86%
    03:00 +20°C° 0 mm 1 mps 745 mmHg 87%
    04:00 +20°C° 0 mm 1 mps 745 mmHg 88%
    05:00 +20°C° 0 mm 1 mps 745 mmHg 87%
    06:00 +20°C° 0 mm 1 mps 745 mmHg 86%
    07:00 +21°C° 0 mm 1 mps 746 mmHg 83%
    08:00 +24°C° 0 mm 1 mps 746 mmHg 73%
    09:00 +27°C° 0 mm 1 mps 746 mmHg 62%
    10:00 +30°C° 0 mm 1 mps 746 mmHg 51%
    11:00 +32°C° 0 mm 1 mps 746 mmHg 47%
    12:00 +35°C° 0 mm 1 mps 745 mmHg 42%
    13:00 +36°C° 0 mm 1 mps 745 mmHg 40%
    14:00 +35°C° 0.1 mm 1 mps 745 mmHg 42%
    15:00 +34°C° 0.1 mm 1 mps 744 mmHg 43%
    16:00 +34°C° 0.1 mm 1 mps 744 mmHg 45%
    17:00 +32°C° 0.1 mm 1 mps 744 mmHg 52%
    18:00 +30°C° 0.1 mm 1 mps 744 mmHg 60%
    19:00 +27°C° 0.1 mm 1 mps 744 mmHg 67%
    20:00 +26°C° 0 mm 1 mps 744 mmHg 72%
    21:00 +25°C° 0 mm 1 mps 745 mmHg 77%
    22:00 +25°C° 0 mm 2 mps 745 mmHg 82%
    23:00 +24°C° 0 mm 2 mps 745 mmHg 83%

    Tomorrow, 25 February, Sunday

    Time Temperature Precipitation Wind Pressure Humidity
    00:00 +24°C° 0 mm 2 mps 744 mmHg 85%
    01:00 +23°C° 0 mm 1 mps 744 mmHg 86%
    02:00 +23°C° 0 mm 1 mps 744 mmHg 87%
    03:00 +23°C° 0 mm 1 mps 744 mmHg 88%
    04:00 +22°C° 0 mm 1 mps 744 mmHg 88%
    05:00 +21°C° 0 mm 2 mps 744 mmHg 88%
    06:00 +21°C° 0 mm 2 mps 744 mmHg 87%
    07:00 +23°C° 0 mm 2 mps 745 mmHg 86%
    08:00 +25°C° 0 mm 2 mps 745 mmHg 77%
    09:00 +27°C° 0 mm 2 mps 745 mmHg 68%
    10:00 +30°C° 0 mm 3 mps 746 mmHg 59%
    11:00 +31°C° 0 mm 3 mps 745 mmHg 55%
    12:00 +33°C° 0 mm 3 mps 745 mmHg 52%
    13:00 +34°C° 0 mm 3 mps 744 mmHg 49%
    14:00 +33°C° 0 mm 3 mps 744 mmHg 51%
    15:00 +33°C° 0 mm 4 mps 743 mmHg 53%
    16:00 +32°C° 0 mm 4 mps 743 mmHg 55%
    17:00 +29°C° 0 mm 3 mps 743 mmHg 61%
    18:00 +27°C° 0 mm 3 mps 743 mmHg 68%
    19:00 +26°C° 0 mm 3 mps 744 mmHg 74%
    20:00 +25°C° 0 mm 2 mps 744 mmHg 77%
    21:00 +25°C° 0 mm 2 mps 745 mmHg 79%
    22:00 +24°C° 0 mm 2 mps 745 mmHg 81%
    23:00 +24°C° 0 mm 2 mps 745 mmHg 82%

    Day after tomorrow, 26 February, Monday

    Time Temperature Precipitation Wind Pressure Humidity
    00:00 +24°C° 0 mm 2 mps 745 mmHg 83%
    01:00 +23°C° 0 mm 2 mps 744 mmHg 84%
    02:00 +23°C° 0 mm 2 mps 744 mmHg 84%
    03:00 +23°C° 0 mm 2 mps 744 mmHg 84%
    04:00 +23°C° 0 mm 2 mps 743 mmHg 85%
    05:00 +23°C° 0 mm 2 mps 744 mmHg 84%
    06:00 +23°C° 0 mm 2 mps 744 mmHg 84%
    07:00 +23°C° 0 mm 2 mps 745 mmHg 84%
    08:00 +25°C° 0 mm 2 mps 745 mmHg 75%
    09:00 +28°C° 0 mm 3 mps 745 mmHg 66%
    10:00 +30°C° 0 mm 3 mps 746 mmHg 57%
    11:00 +31°C° 0 mm 3 mps 745 mmHg 54%
    12:00 +31°C° 0 mm 3 mps 744 mmHg 51%
    13:00 +33°C° 0 mm 3 mps 744 mmHg 48%
    14:00 +33°C° 0 mm 3 mps 743 mmHg 50%
    15:00 +32°C° 0 mm 4 mps 742 mmHg 52%
    16:00 +30°C° 0 mm 4 mps 742 mmHg 55%
    17:00 +29°C° 0 mm 3 mps 742 mmHg 61%
    18:00 +27°C° 0 mm 3 mps 742 mmHg 68%
    19:00 +25°C° 0 mm 3 mps 743 mmHg 75%
    20:00 +25°C° 0 mm 2 mps 743 mmHg 77%
    21:00 +24°C° 0 mm 2 mps 744 mmHg 79%
    22:00 +24°C° 0 mm 2 mps 744 mmHg 82%
    23:00 +23°C° 0 mm 2 mps 744 mmHg 83%

    27 February, Tuesday

    Time Temperature Precipitation Wind Pressure Humidity
    00:00 +23°C° 0 mm 2 mps 744 mmHg 84%
    01:00 +23°C° 0 mm 2 mps 743 mmHg 86%
    02:00 +23°C° 0 mm 2 mps 743 mmHg 87%
    03:00 +22°C° 0 mm 1 mps 743 mmHg 89%
    04:00 +22°C° 0 mm 1 mps 742 mmHg 90%
    05:00 +22°C° 0 mm 1 mps 743 mmHg 90%
    06:00 +22°C° 0 mm 1 mps 743 mmHg 89%
    07:00 +23°C° 0 mm 1 mps 743 mmHg 88%
    08:00 +25°C° 0 mm 1 mps 744 mmHg 78%
    09:00 +28°C° 0 mm 2 mps 744 mmHg 67%
    10:00 +30°C° 0 mm 2 mps 745 mmHg 56%
    11:00 +32°C° 0 mm 2 mps 744 mmHg 50%
    12:00 +34°C° 0 mm 1 mps 743 mmHg 45%
    13:00 +36°C° 0 mm 1 mps 742 mmHg 39%
    14:00 +35°C° 0 mm 1 mps 741 mmHg 41%
    15:00 +34°C° 0 mm 1 mps 741 mmHg 42%
    16:00 +33°C° 0 mm 1 mps 740 mmHg 44%
    17:00 +32°C° 0 mm 1 mps 740 mmHg 52%
    18:00 +30°C° 0 mm 2 mps 741 mmHg 60%
    19:00 +28°C° 0 mm 2 mps 741 mmHg 68%
    20:00 +27°C° 0 mm 2 mps 742 mmHg 73%
    21:00 +26°C° 0 mm 2 mps 742 mmHg 78%
    22:00 +25°C° 0 mm 2 mps 742 mmHg 84%
    23:00 +24°C° 0 mm 1 mps 742 mmHg 86%

    28 February, Wednesday

    Time Temperature Precipitation Wind Pressure Humidity
    00:00 +24°C° 0 mm 1 mps 742 mmHg 88%
    01:00 +23°C° 0 mm 1 mps 741 mmHg 90%
    02:00 +23°C° 0 mm 1 mps 741 mmHg 91%
    03:00 +23°C° 0 mm 1 mps 741 mmHg 92%
    04:00 +22°C° 0 mm 1 mps 740 mmHg 93%
    05:00 +23°C° 0 mm 1 mps 741 mmHg 91%
    06:00 +23°C° 0 mm 1 mps 741 mmHg 90%
    07:00 +23°C° 0 mm 1 mps 742 mmHg 89%
    08:00 +27°C° 0 mm 1 mps 742 mmHg 73%
    09:00 +29°C° 0 mm 0 mps 742 mmHg 58%
    10:00 +33°C° 0 mm 0 mps 743 mmHg 42%
    11:00 +34°C° 0 mm 0 mps 742 mmHg 37%
    12:00 +39°C° 0 mm 1 mps 741 mmHg 32%
    13:00 +40°C° 0 mm 1 mps 740 mmHg 27%
    14:00 +39°C° 0.1 mm 1 mps 740 mmHg 28%
    15:00 +39°C° 0.1 mm 1 mps 739 mmHg 29%
    16:00 +37°C° 0.1 mm 1 mps 739 mmHg 29%
    17:00 +35°C° 0 mm 1 mps 739 mmHg 38%
    18:00 +32°C° 0 mm 1 mps 739 mmHg 46%
    19:00 +30°C° 0 mm 1 mps 740 mmHg 55%
    20:00 +29°C° 0 mm 1 mps 740 mmHg 62%
    21:00 +27°C° 0 mm 2 mps 741 mmHg 69%
    22:00 +26°C° 0 mm 2 mps 741 mmHg 77%
    23:00 +26°C° 0 mm 2 mps 741 mmHg 80%

    1 March, Thursday

    Time Temperature Precipitation Wind Pressure Humidity
    00:00 +25°C° 0 mm 2 mps 740 mmHg 82%
    01:00 +24°C° 0 mm 1 mps 740 mmHg 85%
    02:00 +24°C° 0 mm 1 mps 740 mmHg 85%
    03:00 +23°C° 0 mm 1 mps 739 mmHg 86%
    04:00 +23°C° 0 mm 1 mps 739 mmHg 86%
    05:00 +23°C° 0 mm 1 mps 740 mmHg 85%
    06:00 +23°C° 0 mm 1 mps 740 mmHg 84%
    07:00 +23°C° 0 mm 1 mps 740 mmHg 83%
    08:00 +27°C° 0 mm 1 mps 741 mmHg 69%
    09:00 +31°C° 0 mm 1 mps 741 mmHg 55%
    10:00 +34°C° 0 mm 1 mps 741 mmHg 41%
    11:00 +37°C° 0 mm 2 mps 741 mmHg 36%
    12:00 +38°C° 0 mm 2 mps 740 mmHg 32%
    13:00 +39°C° 0 mm 2 mps 739 mmHg 27%
    14:00 +38°C° 0 mm 2 mps 738 mmHg 30%
    15:00 +37°C° 0 mm 2 mps 738 mmHg 33%
    16:00 +36°C° 0 mm 2 mps 737 mmHg 37%
    17:00 +34°C° 0 mm 2 mps 738 mmHg 42%
    18:00 +31°C° 0 mm 1 mps 738 mmHg 48%
    19:00 +29°C° 0 mm 1 mps 738 mmHg 54%
    20:00 +29°C° 0 mm 1 mps 739 mmHg 55%
    21:00 +28°C° 0 mm 1 mps 739 mmHg 57%
    22:00 +28°C° 0 mm 1 mps 739 mmHg 59%
    23:00 +27°C° 0 mm 1 mps 739 mmHg 60%
    Show more